Terminal Aerodrome Forecast
Issued by NWS

Home | Current Version | Previous Version | Graphics & Text | Print | Product List | Glossary On
Versions: 1 2 3 4 5 6 7 8 9 10 11 12 13 14 15 16
000
FTUS43 KBIS 021543 AAA
TAFJMS
TAF AMD
KJMS 021543Z 0216/0312 34013G21KT P6SM SCT050
     FM021800 33015G25KT P6SM FEW070
     FM030300 33007KT P6SM SKC=

USA.gov is the U.S. government's official web portal to all federal, state and local government web resources and services.